Station GSLM4 - Gravelly Shoal Light, MI Image indicating link to RSS feed of recent meteorological observations for station GSLM4


Conditions at GSLM4 as of
(4:40 am EDT)
0840 GMT on 06/14/2024:
     

Click on the graph icon in the table below to see a time series plot of the last five days of that observation.

5-day plot - Wind Direction Wind Direction (WDIR): NW ( 310 deg true )
5-day plot - Wind Speed Wind Speed (WSPD): 8.0 kts
5-day plot - Wind Gust Wind Gust (GST): 9.9 kts
5-day plot - Atmospheric Pressure Atmospheric Pressure (PRES):29.89 in
5-day plot - Air Temperature Air Temperature (ATMP): 62.1 °F
5-day plot - Wind Speed at 10 Meters Wind Speed at 10 meters (WSPD10M): 7.8 kts
5-day plot - Wind Speed at 20 Meters Wind Speed at 20 meters (WSPD20M): 7.8 kts
5-day plot -  Wind Speed, Wind Gust and Atmospheric Pressure Combined plot of Wind Speed, Gust, and Air Pressure
Previous observations
TIME
(EDT)
5-day plot - Wind Direction
WDIR
 
5-day plot - Wind Speed
WSPD
kts
5-day plot - Wind Gust
GST
kts
5-day plot - Wave Height
WVHT
ft
5-day plot - Dominant Wave Period
DPD
sec
5-day plot - Average Wave Period
APD
sec
5-day plot - Mean Wave Direction
MWD
 
5-day plot - Atmospheric Pressure
PRES
in
5-day plot - Pressure Tendency
PTDY
in
5-day plot - Air Temperature
ATMP
°F
5-day plot - Water Temperature
WTMP
°F
5-day plot - Dew Point
DEWP
°F
5-day plot - Salinity
SAL
psu
5-day plot - Visibility
VIS
nmi
5-day plot - Tide (above MLLW)
TIDE
ft
2024-06-14 04:30 am NW 8.0 8.9----29.89- 62.1-----
2024-06-14 04:20 am NW 5.1 7.0----29.88- 62.1-----
2024-06-14 04:10 amNNW 5.1 6.0----29.88- 62.2-----
2024-06-14 04:00 amNNW 5.1 8.9----29.87-0.01 62.8-----
2024-06-14 03:50 am NW 8.0 9.9----29.87- 63.5-----
2024-06-14 03:40 amWNW 8.9 11.1----29.87- 64.0-----
2024-06-14 03:30 amWNW 9.9 12.0----29.87- 64.8-----
2024-06-14 03:20 amWNW 11.1 12.0----29.87- 64.9-----
2024-06-14 03:10 amWNW 9.9 12.0----29.87- 65.1-----
2024-06-14 03:00 amWNW 9.9 12.0----29.87+0.00 65.1-----
2024-06-14 02:50 amWNW 11.1 11.1----29.87- 65.1-----
2024-06-14 02:40 amWNW 8.9 11.1----29.87- 64.8-----
2024-06-14 02:30 amWNW 9.9 12.0----29.87- 65.5-----
2024-06-14 02:20 amWNW 11.1 12.0----29.88- 65.5-----
2024-06-14 02:10 amWNW 11.1 13.0----29.88- 65.7-----
2024-06-14 02:00 am NW 13.0 15.0----29.88+0.04 66.6-----
2024-06-14 01:50 amWNW 12.0 13.0----29.88- 66.4-----
2024-06-14 01:40 amWNW 13.0 15.0----29.88- 67.3-----
2024-06-14 01:30 amWNW 13.0 15.0----29.88- 67.1-----
2024-06-14 01:20 am W 9.9 12.0----29.88- 68.2-----
2024-06-14 01:10 am W 8.0 9.9----29.89- 67.8-----
2024-06-14 01:00 amWNW 6.0 8.0----29.88+0.08 67.5-----
2024-06-14 12:50 am W 7.0 7.0----29.88- 66.9-----
2024-06-14 12:40 amWNW 6.0 7.0----29.88- 66.6-----
2024-06-14 12:30 am NW 6.0 9.9----29.87- 67.1-----
2024-06-14 12:20 am NW 8.0 9.9----29.87- 67.8-----
2024-06-14 12:10 am NW 9.9 14.0----29.87- 69.4-----
2024-06-14 12:00 am NW 13.0 15.9----29.87+0.10 70.2-----
2024-06-13 11:50 pm NW 15.0 15.9----29.86- 70.9-----
2024-06-13 11:40 pm NW 15.0 18.1----29.86- 71.4-----
2024-06-13 11:30 pm NW 15.0 17.1----29.86- 71.4-----
2024-06-13 11:20 pm NW 15.0 15.9----29.85- 71.1-----
2024-06-13 11:10 pmNNW 14.0 15.0----29.85- 71.8-----
2024-06-13 11:00 pm NW 11.1 12.0----29.84+0.10 69.8-----
2024-06-13 10:50 pmNNW 12.0 12.0----29.84- 71.1-----
2024-06-13 10:40 pmNNW 12.0 17.1----29.83- 72.9-----
2024-06-13 10:30 pmNNW 14.0 15.0----29.82- 74.8-----
2024-06-13 10:20 pm NW 11.1 13.0----29.82- 75.6-----
2024-06-13 10:10 pm NW 12.0 15.9----29.82- 75.7-----
2024-06-13 10:00 pm NW 15.0 15.9----29.80+0.05 74.1-----
2024-06-13 09:50 pm NW 15.9 19.0----29.79- 76.5-----
2024-06-13 09:40 pmNNW 15.9 17.1----29.79- 76.3-----
2024-06-13 09:30 pm W 12.0 13.0----29.78- 80.1-----
2024-06-13 09:20 pm W 14.0 17.1----29.78- 80.1-----
2024-06-13 09:10 pm W 15.0 17.1----29.77- 80.1-----
2024-06-13 09:00 pmWSW 14.0 17.1----29.77+0.04 80.8-----
2024-06-13 08:50 pm W 17.1 19.0----29.76- 79.2-----
2024-06-13 08:40 pm W 15.9 19.0----29.76- 79.0-----
2024-06-13 08:30 pm W 18.1 20.0----29.75- 81.5-----
2024-06-13 08:20 pm W 19.0 22.0----29.75- 80.1-----
2024-06-13 08:10 pmWSW 13.0 17.1----29.75- 78.1-----
2024-06-13 08:00 pmWSW 13.0 15.0----29.74+0.02 78.4-----
2024-06-13 07:50 pm SW 13.0 19.0----29.74- 78.3-----
2024-06-13 07:40 pm SW 12.0 17.1----29.74- 77.9-----
2024-06-13 07:30 pm SW 15.0 17.1----29.75- 77.7-----
2024-06-13 07:20 pm SW 13.0 18.1----29.75- 76.3-----
2024-06-13 07:10 pm SW 15.9 20.0----29.74- 77.5-----
2024-06-13 07:00 pm SW 18.1 20.0----29.75+0.03 77.2-----
2024-06-13 06:50 pm SW 15.9 17.1----29.75- 75.6-----
2024-06-13 06:40 pm SW 17.1 22.9----29.74- 79.3-----
2024-06-13 06:30 pmWSW 22.0 24.1----29.73- 78.3-----
2024-06-13 06:20 pm SW 20.0 28.0----29.73- 78.1-----
2024-06-13 06:10 pm SW 18.1 24.1----29.73- 77.4-----
2024-06-13 06:00 pm SW 21.0 24.1----29.73-0.01 77.0-----
2024-06-13 05:50 pmWSW 22.0 25.1----29.73- 76.6-----
2024-06-13 05:40 pmWSW 17.1 29.9----29.72- 78.6-----
2024-06-13 05:30 pmWSW 26.0 28.0----29.73- 77.5-----
2024-06-13 05:20 pm SW 27.0 28.9----29.73- 76.5-----
2024-06-13 05:10 pm SW 22.0 26.0----29.72- 76.5-----
2024-06-13 05:00 pm SW 25.1 28.0----29.72-0.04 77.4-----
2024-06-13 04:50 pm SW 25.1 28.9----29.71- 77.0-----
2024-06-13 04:40 pm SW 24.1 26.0----29.71- 77.2-----
2024-06-13 04:30 pm SW 22.0 25.1----29.72- 76.5-----
2024-06-13 04:20 pm SW 22.9 26.0----29.72- 75.9-----
2024-06-13 04:10 pmSSW 22.9 27.0----29.73- 75.7-----
2024-06-13 04:00 pmSSW 22.9 25.1----29.72-0.06 75.4-----
2024-06-13 03:50 pmSSW 22.9 25.1----29.72- 75.2-----
2024-06-13 03:40 pmSSW 20.0 24.1----29.73- 75.4-----
2024-06-13 03:30 pmSSW 22.9 26.0----29.73- 76.3-----
2024-06-13 03:20 pmSSW 22.0 25.1----29.73- 75.6-----
2024-06-13 03:10 pmSSW 20.0 22.9----29.74- 74.5-----
2024-06-13 03:00 pmSSW 15.9 20.0----29.74-0.04 74.7-----
2024-06-13 02:50 pmSSW 17.1 24.1----29.75- 74.8-----
2024-06-13 02:40 pmSSW 14.0 20.0----29.75- 75.0-----
2024-06-13 02:30 pmSSW 15.0 20.0----29.75- 74.5-----
2024-06-13 02:20 pmSSW 14.0 18.1----29.75- 73.8-----
2024-06-13 02:10 pmSSW 11.1 17.1----29.76- 74.3-----
2024-06-13 02:00 pmSSW 11.1 17.1----29.76-0.02 73.6-----
2024-06-13 01:50 pmSSW 8.9 12.0----29.77- 73.2-----
2024-06-13 01:40 pmSSW 6.0 11.1----29.77- 72.9-----
2024-06-13 01:30 pmSSW 8.0 11.1----29.77- 72.5-----
2024-06-13 01:20 pmSSW 9.9 15.9----29.78- 71.4-----
2024-06-13 01:10 pmSSW 13.0 15.9----29.78- 70.9-----
2024-06-13 01:00 pmSSW 15.9 21.0----29.78+0.00 71.8-----
2024-06-13 12:50 pmSSW 17.1 20.0----29.78- 71.1-----
2024-06-13 12:40 pmSSW 18.1 20.0----29.78- 70.9-----
2024-06-13 12:30 pmSSW 15.0 17.1----29.78- 70.2-----
2024-06-13 12:20 pmSSW 9.9 13.0----29.78- 69.4-----
2024-06-13 12:10 pmSSW 6.0 8.0----29.78- 69.3-----
2024-06-13 12:00 pmSSW 5.1 11.1----29.78-0.04 69.1-----
2024-06-13 11:50 amSSW 9.9 11.1----29.78- 69.6-----
2024-06-13 11:40 amSSW 7.0 11.1----29.77- 69.4-----
2024-06-13 11:30 amSSW 9.9 15.0----29.77- 68.7-----
2024-06-13 11:20 amSSW 15.0 17.1----29.78- 68.5-----
2024-06-13 11:10 amSSW 17.1 18.1----29.78- 68.4-----
2024-06-13 11:00 amSSW 9.9 15.9----29.78-0.03 69.1-----
2024-06-13 10:50 amSSW 8.9 19.0----29.78- 69.3-----
2024-06-13 10:40 am S 4.1 9.9----29.78- 69.6-----
2024-06-13 10:30 amSSE 6.0 8.9----29.77- 69.3-----
2024-06-13 10:20 am S 2.9 5.1----29.78- 68.5-----
2024-06-13 10:10 am S 2.9 8.0----29.79- 69.3-----
2024-06-13 10:00 amSSE 6.0 8.0----29.78+0.00 69.8-----
2024-06-13 09:50 amSSW 5.1 15.9----29.79- 69.3-----
2024-06-13 09:40 amSSW 15.9 18.1----29.81- 68.7-----
2024-06-13 09:30 amSSW 17.1 19.0----29.81- 68.7-----
2024-06-13 09:20 amSSW 12.0 17.1----29.81- 68.7-----
2024-06-13 09:10 amSSW 13.0 18.1----29.82- 68.2-----
2024-06-13 09:00 amSSW 14.0 18.1----29.82+0.02 67.6-----
2024-06-13 08:50 amSSW 15.9 19.0----29.83- 68.0-----
2024-06-13 08:40 amSSW 13.0 15.9----29.82- 68.2-----
2024-06-13 08:30 amSSW 7.0 12.0----29.82- 68.2-----
2024-06-13 08:20 amSSW 8.9 13.0----29.82- 68.5-----
2024-06-13 08:10 am S 5.1 17.1----29.81- 69.4-----
2024-06-13 08:00 amSSW 14.0 20.0----29.81+0.02 69.6-----
2024-06-13 07:50 amSSW 13.0 18.1----29.81- 69.1-----
2024-06-13 07:40 amSSW 15.9 19.0----29.80- 70.0-----
2024-06-13 07:30 am SW 14.0 15.9----29.80- 69.3-----
2024-06-13 07:20 am SW 14.0 19.0----29.79- 68.7-----
2024-06-13 07:10 am SW 14.0 18.1----29.79- 69.3-----
2024-06-13 07:00 amSSW 12.0 15.0----29.78-0.01 70.5-----
2024-06-13 06:50 am S 1.9 8.0----29.78- 70.2-----
2024-06-13 06:40 amSSW 4.1 7.0----29.78- 69.8-----
2024-06-13 06:30 am S 2.9 15.0----29.78- 70.2-----
2024-06-13 06:20 amSSW 15.0 18.1----29.80- 69.8-----
2024-06-13 06:10 am SW 17.1 20.0----29.80- 69.4-----
2024-06-13 06:00 amSSW 15.0 19.0----29.80+0.00 68.7-----
2024-06-13 05:50 amSSW 20.0 24.1----29.80- 69.6-----
2024-06-13 05:40 amSSW 9.9 15.9----29.79- 69.6-----
2024-06-13 05:30 amSSW 8.0 15.0----29.79- 69.8-----
2024-06-13 05:20 amSSW 8.0 11.1----29.79- 69.4-----
2024-06-13 05:10 amSSW 8.9 11.1----29.79- 68.9-----
2024-06-13 05:00 amSSW 6.0 8.0----29.79-0.03 69.1-----
2024-06-13 04:50 am S 4.1 7.0----29.79- 69.1-----